IW5EFR Vecchia di Pontedera IT current weather conditions

sailwx.info

Wind from 150 at 2 knots gusting 5

Air temperature 18.9° C
Dewpoint 18.2° C

Last reported at 2014-Sep-22 01:44 UTC.
Time now 2014-Sep-22 02:17 UTC

Location: N 43°37' E 010°38'.
View on Google Maps.

See reports from other nearby stations

  
Tides and Currents Weather Stations Pressure Air Temp Water Temp Dewpoint Dewpoint Depression Visibility Wind Speed Wind Dir Waves Ship Positions
date/time (UTC)wind fromknots sea level pressurealtimeterstation pressurevisibilityair tempwater tempwave heightnotes
2014-Sep-22 01:44 150 2 gusting 5 18.9
2014-Sep-22 01:33 121 2 gusting 4 18.9
2014-Sep-22 01:22 130 2 gusting 3 18.9
2014-Sep-22 01:00 156 0 gusting 5 18.3
2014-Sep-22 00:49 156 3 gusting 6 18.3
2014-Sep-22 00:38 156 2 gusting 4 18.3
2014-Sep-22 00:05 173 18.9
2014-Sep-21 23:54 173 1 gusting 3 19.4
2014-Sep-21 23:43 171 19.4
2014-Sep-21 23:32 166 2 gusting 2 19.4
2014-Sep-21 23:21 166 1 gusting 2 19.4
2014-Sep-21 23:10 166 19.4
2014-Sep-21 22:59 166 19.4
2014-Sep-21 22:37 166 19.4
2014-Sep-21 22:26 166 0 20.0
2014-Sep-21 22:15 166 20.0
2014-Sep-21 22:04 166 20.0
2014-Sep-21 21:42 166 20.6
2014-Sep-21 21:31 166 20.6
2014-Sep-21 21:09 166 20.6
2014-Sep-21 20:47 166 21.1
2014-Sep-21 20:36 190 2 21.1
2014-Sep-21 20:25 277 21.1
2014-Sep-21 20:03 277 21.1
2014-Sep-21 19:52 277 21.1
2014-Sep-21 19:19 278 22.8
2014-Sep-21 19:08 277 22.8
2014-Sep-21 18:57 277 23.3
2014-Sep-21 18:46 277 23.3
2014-Sep-21 18:35 278 2 gusting 2 23.3
2014-Sep-21 18:13 278 23.9
2014-Sep-21 18:02 275 23.9
2014-Sep-21 17:40 257 23.9
2014-Sep-21 17:29 257 23.9
2014-Sep-21 17:18 226 23.9
2014-Sep-21 16:56 242 24.4
2014-Sep-21 16:45 256 1 gusting 6 25.0
2014-Sep-21 16:12 257 25.6
2014-Sep-21 16:01 266 0 gusting 6 25.0
2014-Sep-21 15:50 263 25.6
2014-Sep-21 15:17 273 5 gusting 6 26.1
2014-Sep-21 14:55 264 1 gusting 6 26.1
2014-Sep-21 14:44 267 1 gusting 6 26.1
2014-Sep-21 14:33 249 0 gusting 6 26.1
2014-Sep-21 14:22 250 3 gusting 5 26.1
2014-Sep-21 14:11 273 3 gusting 7 26.1
2014-Sep-21 13:49 307 6 gusting 8 26.7
2014-Sep-21 13:38 270 1 gusting 9 26.7
2014-Sep-21 13:27 275 1 gusting 6 26.7
2014-Sep-21 13:16 248 4 gusting 7 26.7
2014-Sep-21 13:05 267 4 gusting 8 26.7
2014-Sep-21 12:54 232 4 gusting 8 26.7
2014-Sep-21 12:32 263 3 gusting 9 27.2
2014-Sep-21 12:10 261 6 gusting 10 27.2
2014-Sep-21 11:59 250 3 gusting 8 27.2
2014-Sep-21 11:37 247 1 gusting 8 27.2
2014-Sep-21 11:26 290 5 gusting 10 27.2
2014-Sep-21 11:15 301 4 gusting 6 27.2
2014-Sep-21 10:42 286 3 gusting 5 26.7
2014-Sep-21 10:31 259 26.1
2014-Sep-21 10:20 275 2 gusting 3 25.6
2014-Sep-21 09:58 011 1 gusting 3 24.4
2014-Sep-21 09:47 028 2 gusting 4 24.4
2014-Sep-21 09:36 030 0 gusting 2 24.4
2014-Sep-21 09:25 036 23.9
2014-Sep-21 09:14 015 0 gusting 4 23.3
2014-Sep-21 08:52 145 22.2
2014-Sep-21 08:41 145 0 gusting 5 21.7
2014-Sep-21 08:19 145 0 gusting 4 20.6
2014-Sep-21 07:46 138 20.6
2014-Sep-21 07:35 138 1 gusting 3 20.0
2014-Sep-21 07:24 138 20.0
2014-Sep-21 07:13 185 1 gusting 2 19.4
2014-Sep-21 06:51 185 18.9
2014-Sep-21 06:40 186 1 gusting 1 18.3
2014-Sep-21 06:18 186 0 gusting 3 17.2
2014-Sep-21 06:07 186 0 gusting 2 17.2
2014-Sep-21 05:45 188 17.2
2014-Sep-21 05:34 188 17.2
2014-Sep-21 05:24 188 17.2
2014-Sep-21 05:12 188 17.2
2014-Sep-21 05:01 188 1 gusting 1 17.2
2014-Sep-21 04:50 187 17.8
2014-Sep-21 04:39 186 18.9
2014-Sep-21 04:28 186 18.9
2014-Sep-21 04:18 186 0 gusting 2 18.9
2014-Sep-21 04:06 186 18.9
2014-Sep-21 03:55 186 18.3
2014-Sep-21 03:44 186 18.3
2014-Sep-21 03:23 186 18.3
2014-Sep-21 03:11 186 18.3
2014-Sep-21 03:00 186 18.3
2014-Sep-21 02:49 186 0 18.3
2014-Sep-21 02:38 186 18.3
2014-Sep-21 02:05 186 18.3
2014-Sep-21 01:55 186 18.3
2014-Sep-21 01:43 186 18.3
2014-Sep-21 01:21 186 18.3
2014-Sep-21 00:59 186 18.3
2014-Sep-21 00:48 186 1 gusting 3 18.9
2014-Sep-21 00:37 186 0 gusting 2 18.9
2014-Sep-21 00:26 202 2 gusting 2 18.9
2014-Sep-21 00:04 202 1 gusting 2 18.9
2014-Sep-20 23:53 202 2 gusting 2 18.9
2014-Sep-20 23:42 202 1 gusting 1 18.9
2014-Sep-20 23:31 202 0 gusting 2 19.4
2014-Sep-20 23:20 202 19.4
2014-Sep-20 23:09 202 0 gusting 2 19.4
2014-Sep-20 22:37 202 20.0
2014-Sep-20 22:25 202 20.0
2014-Sep-20 22:14 202 0 gusting 1 20.0
2014-Sep-20 21:52 202 20.6
2014-Sep-20 21:41 202 20.6
2014-Sep-20 21:08 202 21.1
2014-Sep-20 20:57 202 21.1
2014-Sep-20 20:13 202 21.7
2014-Sep-20 20:02 202 21.7
2014-Sep-20 19:40 201 22.2
2014-Sep-20 19:29 201 22.2
2014-Sep-20 19:18 201 22.8
2014-Sep-20 19:07 201 22.8
2014-Sep-20 18:56 288 23.3
2014-Sep-20 18:45 288 23.3
2014-Sep-20 18:34 288 23.9
2014-Sep-20 18:12 288 24.4
2014-Sep-20 18:01 288 24.4
2014-Sep-20 17:50 288 1 gusting 4 25.0
2014-Sep-20 17:39 288 1 gusting 5 25.0
2014-Sep-20 17:28 284 2 gusting 5 25.6
2014-Sep-20 17:06 265 2 gusting 6 26.1
2014-Sep-20 16:55 275 0 gusting 6 26.7
2014-Sep-20 16:44 303 2 gusting 6 26.7
2014-Sep-20 16:33 274 5 gusting 6 27.2
2014-Sep-20 16:22 288 1 gusting 7 27.8
2014-Sep-20 16:11 317 1 gusting 9 27.8
2014-Sep-20 16:00 300 3 gusting 8 27.8
2014-Sep-20 15:49 250 6 gusting 7 27.8
2014-Sep-20 15:38 257 4 gusting 11 28.3
2014-Sep-20 15:27 273 1 gusting 6 28.3
2014-Sep-20 15:16 245 1 gusting 6 28.3
2014-Sep-20 15:05 271 2 gusting 6 28.9
2014-Sep-20 14:54 283 28.9
2014-Sep-20 14:43 253 2 gusting 7 29.4
2014-Sep-20 14:32 333 4 gusting 6 29.4
2014-Sep-20 14:21 235 0 gusting 6 29.4
2014-Sep-20 14:10 269 3 gusting 6 29.4
2014-Sep-20 14:02 229 0 gusting 6 29.4
2014-Sep-20 13:51 184 2 gusting 8 29.4
2014-Sep-20 13:40 223 3 gusting 7 28.9
2014-Sep-20 13:29 217 1 gusting 9 29.4
2014-Sep-20 13:18 262 6 gusting 7 29.4
2014-Sep-20 13:07 272 6 gusting 6 29.4
2014-Sep-20 12:56 267 3 gusting 6 29.4
2014-Sep-20 12:45 261 1 gusting 9 29.4
2014-Sep-20 12:34 225 2 gusting 6 28.9
2014-Sep-20 12:12 286 28.9
2014-Sep-20 12:01 235 3 gusting 6 28.9
2014-Sep-20 11:50 244 1 gusting 6 28.9
2014-Sep-20 11:28 269 2 gusting 6 28.3
2014-Sep-20 11:17 254 1 gusting 8 28.3
2014-Sep-20 11:06 194 0 gusting 6 28.3
2014-Sep-20 10:55 281 3 gusting 8 28.3
2014-Sep-20 10:44 256 5 gusting 6 28.3
2014-Sep-20 10:33 194 2 gusting 7 28.3
2014-Sep-20 10:11 198 0 gusting 6 27.8
2014-Sep-20 10:00 225 2 gusting 6 27.8
2014-Sep-20 09:49 240 3 gusting 6 27.8
2014-Sep-20 09:38 242 2 gusting 5 27.2
2014-Sep-20 09:27 268 4 gusting 5 27.2
2014-Sep-20 09:17 263 0 gusting 4 27.2
2014-Sep-20 08:43 235 0 gusting 5 26.7
2014-Sep-20 08:32 230 1 gusting 6 26.7
2014-Sep-20 08:21 215 26.1
2014-Sep-20 08:10 168 25.6
2014-Sep-20 07:59 177 0 gusting 6 25.0
2014-Sep-20 07:48 145 5 gusting 6 25.0
2014-Sep-20 07:37 182 2 gusting 7 23.9
2014-Sep-20 07:26 176 0 gusting 6 23.9
2014-Sep-20 07:15 182 2 gusting 6 23.3
2014-Sep-20 07:04 177 1 gusting 2 23.3
2014-Sep-20 06:53 191 1 gusting 6 22.8
2014-Sep-20 06:42 177 22.8
2014-Sep-20 06:31 167 22.8
2014-Sep-20 06:20 148 2 22.8
2014-Sep-20 05:47 225 22.2
2014-Sep-20 05:36 225 22.2
2014-Sep-20 05:14 225 22.8
2014-Sep-20 05:03 225 23.3
2014-Sep-20 04:52 225 23.3
2014-Sep-20 04:41 225 23.3
2014-Sep-20 04:19 220 2 gusting 6 23.9
2014-Sep-20 04:08 242 23.9
2014-Sep-20 03:57 253 23.9
2014-Sep-20 03:46 240 23.9
2014-Sep-20 03:35 227 0 gusting 9 23.9
2014-Sep-20 03:02 232 3 gusting 6 23.9
2014-Sep-20 02:51 240 0 gusting 6 23.9
2014-Sep-20 02:29 261 0 gusting 6 22.8
2014-Sep-20 02:18 269 0 gusting 3 22.8